Location: Limerick
(52.6800°N, 8.6400°W)
Time: 09:58:56
(UTC+00:00)

Daily predictions for brighter satellites

Satellite Brightness Start Highest point End
(mag) Time Altitude Azimuth Time Altitude Azimuth Time Altitude Azimuth
Cosmos 2344 4.4 16:50:20 10° W 16:58:15 52° NNW 17:08:21 10° ENE
SMAP 3.7 16:54:27 10° SE 16:58:36 33° ENE 17:02:47 10° N
Genesis I 4.4 16:57:21 10° NW 17:01:11 48° SW 17:04:57 10° SSE
Cosmos 2181 Rocket 4.1 16:55:32 10° S 17:01:54 72° E 17:08:22 10° NNE
Meteor 1-5 Rocket 4.5 16:57:38 10° NNW 17:03:06 75° W 17:08:43 10° S
Cosmos 494 Rocket 4.4 16:59:22 10° NNW 17:04:37 71° WSW 17:09:51 10° SSE
Cosmos 2263 Rocket 3.4 17:01:25 10° WSW 17:06:37 37° NW 17:11:53 10° NNE
Cosmos 1544 Rocket 3.6 17:04:59 10° N 17:09:30 83° E 17:13:58 10° SSE
CZ-3B DEB 3.1 17:06:05 10° SSW 17:09:45 37° SE 17:18:07 10° ENE
Meteor 1-27 Rocket 4.5 17:07:17 10° SSW 17:12:55 56° WNW 17:18:29 10° N
CSL-04 Rocket 4.0 17:09:15 10° SSE 17:14:46 78° WSW 17:20:23 10° NNW
SJ-12 4.3 17:11:39 10° SE 17:15:34 44° ENE 17:19:32 10° N
Okean 1 4.1 17:13:06 10° SSE 17:16:44 32° E 17:20:24 10° NNE
AQUARIUS 4.4 17:13:18 10° SE 17:17:35 45° ENE 17:21:54 10° N
Cosmos 1346 Rocket 3.9 17:14:57 10° SE 17:18:04 23° E 17:21:11 10° NE
Timation 2 Rocket 4.2 17:11:31 10° NNW 17:18:22 82° NE 17:25:18 10° SE
COSMO-SKYMED 1 4.5 17:17:25 10° ENE 17:18:36 11° E 17:19:55 10° ESE
Ariane Rocket 3.7 17:14:04 10° S 17:19:04 60° WSW 17:24:05 10° NNW
Cosmos 1975 Rocket 3.3 17:16:46 10° SSW 17:21:06 75° WNW 17:25:29 10° N
Cosmos 1500 3.4 17:17:24 10° N 17:21:09 48° ENE 17:24:54 10° SSE
MOZ.5/SAFIR/RUBIN 5/SL-8 4.1 17:18:03 10° N 17:22:43 70° WNW 17:27:24 10° SSW
IRS-1A Rocket 4.3 17:17:48 10° SSE 17:23:20 87° WSW 17:28:57 10° NNW
Cosmos 921 Rocket 4.4 17:20:49 10° SE 17:24:00 20° E 17:26:44 12° NE
ERBS 2.6 17:21:34 10° WNW 17:24:56 51° NNE 17:28:08 11° E
Cosmos 1743 3.5 17:22:02 10° N 17:25:30 30° ENE 17:28:56 10° SE
CSL-04 Debris 4.5 17:20:45 10° S 17:26:09 73° WSW 17:31:36 10° NNW
Tiangong 1 3.8 17:25:17 10° S 17:26:17 11° SSE 17:27:18 10° SSE
BREEZE-M DEB (TANK) 3.3 17:25:06 10° SSW 17:26:54 21° SSE 17:28:49 10° ESE
Cosmos 1844 Rocket 2.8 17:23:20 10° SW 17:28:57 77° WNW 17:34:39 10° NNE
USA 161 4.4 17:33:41 10° NNW 17:35:15 14° WNW 17:36:50 10° W
ALOS 4.3 17:36:33 10° NE 17:36:33 10° NE 17:36:41 10° NNE
CORIOLIS 4.1 17:30:47 10° SSE 17:36:07 63° ENE 17:41:26 10° N
Cosmos 1536 Rocket 3.7 17:33:29 10° S 17:37:53 59° E 17:42:19 10° NNE
ISS -3.2 17:37:09 10° W 17:40:27 74° S 17:42:53 17° E
EP 2 4.4 17:39:33 10° SW 17:42:11 70° SE 17:44:06 20° NE
SPOT 3 Rocket 3.5 17:37:35 10° SSE 17:42:46 79° ENE 17:47:57 10° NNW
RESURS DK-1 4.0 17:40:48 10° N 17:43:32 17° NNE 17:44:19 16° NE
USA 32 4.1 17:39:15 10° S 17:44:28 85° W 17:49:44 10° N
Nadezhda 3 Rocket 4.3 17:38:56 10° SSE 17:44:46 44° E 17:50:42 10° NNE
Cosmos 2058 Rocket 4.3 17:41:53 10° NNE 17:45:17 21° ENE 17:48:39 10° ESE
YAOGAN 1 2.5 17:43:57 10° SSE 17:48:17 77° ENE 17:52:38 10° NNW
CZ-2C R/B 3.8 17:47:02 10° NNE 17:51:30 80° WNW 17:56:01 10° SSW
Cosmos 1809 Rocket 4.4 17:45:51 10° N 17:52:03 81° ENE 17:58:11 10° SSE
Cosmos 1484 Rocket 3.1 17:49:50 10° SE 17:53:18 39° ENE 17:56:49 10° N
Cosmos 1190 Rocket 4.1 17:48:36 10° NNW 17:53:45 51° ENE 17:58:50 10° SE
USA 234 4.1 17:49:44 16° ENE 17:54:09 33° SE 17:59:56 10° SSW
COSMOS 2487 4.3 17:53:46 10° NW 17:57:06 36° WSW 18:00:24 10° S
Cosmos 1455 Rocket 4.4 17:53:50 10° NNW 17:58:02 43° W 18:02:13 10° SSW
SL-16 R/B 4.2 17:53:36 10° N 17:58:46 29° NW 18:03:55 10° WSW
Cosmos 1238 Rocket 2.9 17:56:51 10° SSW 17:59:56 59° WNW 18:03:30 10° N
Intercosmos 25 2.8 17:57:00 10° N 18:00:15 60° ENE 18:03:29 10° SSE
Cosmos 1975 3.8 17:59:32 10° NNW 18:03:31 51° W 18:07:25 10° S
Cosmos 1844 4.1 17:59:20 10° SW 18:04:50 59° NW 18:10:00 12° NNE
SKYMED 2 4.4 18:06:01 25° ENE 18:07:13 29° E 18:11:01 10° SSE
Thor Agena Rocket 3.5 18:03:31 10° NNE 18:08:45 69° ESE 18:14:00 10° S
Cosmos 1812 3.4 18:05:00 10° SSW 18:08:47 54° WNW 18:12:37 10° N
MSX 3.8 18:03:35 10° SSE 18:09:21 87° ENE 18:15:08 10° NNW
NOSS 3-4 (A) 3.9 18:02:36 10° NW 18:09:30 78° SW 18:16:50 10° SE
NOSS 3-4 (C) 3.9 18:02:43 10° NW 18:09:37 79° SW 18:16:56 10° SE
Cosmos 2297 3.7 18:04:42 10° SSW 18:10:13 60° ESE 18:14:07 20° NE
GEOS 3 Rocket 3.7 18:08:45 16° ESE 18:12:41 55° NE 18:17:42 10° NW
BREEZE M DEB (TANK) 4.1 18:07:31 10° SSW 18:12:42 21° SSE 18:14:24 16° SE
IDEFIX/ARIANE 42P 3.1 18:10:46 10° S 18:15:54 62° WSW 18:21:04 10° NNW
SL-8 R/B 4.3 18:12:28 10° WSW 18:17:05 49° S 18:19:35 25° ESE
Cosmos 2278 Rocket 2.4 18:11:59 10° SW 18:17:38 71° NW 18:22:20 15° NNE
Cosmos 1934 Rocket 4.0 18:12:30 10° N 18:18:41 61° ENE 18:24:54 10° SSE
ATLAS CENTAUR R/B 3.2 18:16:14 10° NW 18:19:13 18° N 18:19:47 17° NNE
TIMED 4.4 18:15:13 10° SSW 18:19:35 73° ESE 18:22:03 25° NNE
NOSS 3-3 (A) 4.1 18:14:45 10° SW 18:21:07 88° NW 18:25:46 22° NE
NOSS 3-3 (C) 4.1 18:14:51 10° SW 18:21:13 88° NW 18:25:51 23° NE
COSMOS 2441 4.4 18:16:50 10° SSE 18:21:45 87° WSW 18:26:42 10° NNW
CZ-2C R/B 3.3 18:17:17 10° S 18:22:16 54° W 18:27:23 10° NNW
BREEZE-M DEB (TANK) 4.1 18:14:50 10° W 18:22:22 60° SSW 18:23:59 29° ESE
CZ-4 R/B 3.1 18:19:30 10° SSW 18:23:21 36° W 18:27:09 10° NNW
Cosmos 1726 Rocket 3.6 18:21:42 10° N 18:26:06 54° ENE 18:30:28 10° SSE
Cosmos 1833 Rocket 3.7 18:20:48 10° NW 18:26:12 48° WSW 18:31:34 10° S
Cosmos 1535 Rocket 4.4 18:24:23 10° N 18:30:45 87° E 18:36:58 10° S
Cosmos 1666 2.6 18:31:28 10° N 18:35:21 88° ENE 18:39:16 10° S
SL-24 DEB 4.5 18:31:27 10° N 18:36:11 71° W 18:40:50 10° SSW
Okean 1-7 Rocket 3.5 18:31:47 10° S 18:36:16 85° E 18:39:26 19° NNE
Cosmos 2297 Rocket 4.1 18:33:47 10° NNW 18:36:26 13° NNE 18:37:00 13° NNE
Cosmos 2082 Rocket 3.8 18:32:06 10° NW 18:37:13 36° WSW 18:42:20 10° S
ASTRO F (AKARI) 4.1 18:39:57 80° SSE 18:39:57 80° SSE 18:42:59 10° SSW
GRACE-2 4.3 18:37:31 10° S 18:40:11 60° W 18:40:11 60° W
GRACE-1 4.4 18:37:57 10° S 18:40:40 59° W 18:40:40 59° W
Cosmos 2227 Rocket 4.0 18:39:10 10° NNW 18:42:14 14° NNE 18:42:14 14° NNE
Cosmos 407 Rocket 3.4 18:38:05 10° NNW 18:43:15 85° WSW 18:48:26 10° SSE
Resurs 01 Rocket 3.4 18:47:47 19° N 18:47:47 19° N 18:49:12 10° N
Cosmos 1606 Rocket 3.5 18:41:30 10° NNW 18:46:01 87° WSW 18:50:30 10° S
Spot 2 Rocket 3.8 18:47:44 42° NE 18:47:44 42° NE 18:52:11 10° N
Cosmos 614 Rocket 4.4 18:44:42 10° NNW 18:49:19 42° NE 18:49:19 42° NE
TRAILBLAZER 4.5 18:45:05 10° NW 18:49:40 69° NE 18:50:18 60° E
Cosmos 2263 Rocket 4.4 18:49:04 10° NW 18:52:18 15° NNW 18:55:10 11° NNE
Cosmos 2056 Rocket 3.5 18:47:41 10° S 18:52:56 59° ESE 18:53:56 50° ENE
Cosmos 1346 Rocket 4.2 18:50:41 10° SW 18:54:18 36° WNW 18:57:04 15° N
Cosmos 1821 Rocket 4.2 18:48:52 10° NNW 18:54:56 68° W 19:00:58 10° S
COSMO-SKYMED 1 2.4 18:54:38 56° NNE 18:55:31 79° ESE 18:59:52 10° SSW
Cosmos 676 Rocket 3.9 18:50:28 10° NNW 18:55:43 90° ENE 19:00:49 11° SSE
Cosmos 1954 Rocket 3.8 18:54:19 10° NNW 18:59:32 80° ENE 19:01:57 33° SSE
Cosmos 1153 Rocket 4.4 18:53:26 10° N 18:59:35 61° ENE 19:05:38 10° SSE
Tiangong 1 3.8 19:00:14 10° SW 19:01:13 12° SSW 19:01:13 12° SSW
ERBS 3.2 18:58:23 10° WNW 19:01:33 45° SW 19:01:33 45° SW
Cosmos 921 Rocket 3.6 18:57:39 10° SW 19:01:54 56° WNW 19:03:34 34° N
Cosmos 1025 Rocket 3.1 19:00:07 10° SSW 19:04:31 78° WNW 19:05:47 46° N
FengYun 1-2 T 4.2 19:03:27 48° ESE 19:04:42 59° ENE 19:10:16 10° N
Cosmos 1624 Rocket 3.8 19:00:23 10° SSW 19:05:34 78° ESE 19:06:32 59° NE
Cosmos 1605 Rocket 3.9 18:59:27 10° N 19:05:49 89° ENE 19:12:02 10° S
GENESIS II 4.3 19:01:58 10° NW 19:05:57 75° WSW 19:05:57 75° WSW
Timation 1 Rocket 4.4 19:03:07 10° SW 19:09:04 74° NW 19:11:39 36° NNE
NOSS 2-1 (D) 3.5 19:06:49 10° SW 19:10:42 84° W 19:10:42 84° W
Cosmos 2100 Rocket 4.3 19:04:57 10° N 19:10:01 45° NE 19:10:01 45° NE
Cosmos 1140 Rocket 3.3 19:06:04 10° NNW 19:11:15 75° ENE 19:11:30 73° E
NOSS 2-1 (C) 3.5 19:07:28 10° SW 19:11:22 84° W 19:11:22 84° W
ALOS 4.1 19:15:05 19° N 19:15:05 19° N 19:16:29 10° N
Cosmos 1371 Rocket 4.0 19:06:31 10° SSW 19:11:54 82° WNW 19:13:32 46° NNE
BREEZE-M DEB (TANK) 3.7 18:55:31 10° W 19:15:14 89° N 19:16:51 54° E
Cosmos 1023 Rocket 4.2 19:10:05 10° NNW 19:15:15 80° ENE 19:15:21 80° E
NOAA 12 4.3 19:10:20 10° S 19:15:35 71° WSW 19:20:51 10° NNW
ISS -1.4 19:13:36 10° W 19:15:33 31° W 19:15:33 31° W
Cosmos 2369 Rocket 3.7 19:15:07 10° S 19:17:16 22° SSE 19:17:16 22° SSE
Cosmos 1850 Rocket 4.4 19:16:36 10° NNW 19:20:35 49° N 19:20:35 49° N
RESURS DK-1 3.9 19:18:11 10° NNW 19:20:16 28° NNW 19:20:16 28° NNW
Cosmos 2058 Rocket 3.6 19:19:16 10° NNW 19:23:42 59° W 19:28:04 10° S
Cosmos 1741 Rocket 4.4 19:20:32 10° NNW 19:24:37 51° N 19:24:37 51° N
NOSS 2-1 (E) 4.1 19:26:11 10° SW 19:29:36 59° W 19:29:36 59° W
Meteor 2-4 Rocket 4.1 19:26:43 10° SSW 19:31:59 58° WNW 19:34:41 29° N
Cosmos 2173 Rocket 4.4 19:25:54 10° N 19:30:36 47° NNE 19:30:36 47° NNE
Meteor 1-23 Rocket 4.5 19:27:12 10° SSW 19:32:50 66° WNW 19:35:29 32° N
USA 234 3.1 19:37:05 71° E 19:37:49 80° SSE 19:44:23 10° WSW
FENGYUN 3A 4.2 19:41:14 47° NNW 19:41:14 47° NNW 19:45:00 10° NNW
CZ-3B DEB 3.3 19:36:58 10° W 19:42:43 81° N 19:46:03 51° ENE
BREEZE-M R/B 3.9 19:35:46 10° WSW 19:42:57 60° SSW 19:42:57 60° SSW
Cosmos 1727 Rocket 3.9 19:45:18 10° SSW 19:51:30 81° W 19:51:41 80° NW
ATLAS CENTAUR R/B 4.1 19:55:31 10° NW 19:56:05 13° NNW 19:56:05 13° NNW
Cosmos 2278 Rocket 4.1 19:58:25 10° W 20:02:45 22° NNW 20:04:11 20° NNW
Resurs 01 Rocket 4.5 20:25:21 11° NNW 20:25:21 11° NNW 20:25:39 10° NNW
Cosmos 2297 Rocket 4.5 20:17:43 10° NNW 20:18:49 15° NNW 20:18:49 15° NNW
Cosmos 2227 Rocket 4.4 20:22:57 10° NNW 20:24:04 15° NNW 20:24:04 15° NNW
